sat.trackr.live / text

‹ back to catalog

STARLINK-3080

NORAD 49161 · 2021-082AH

PAYLOAD ACTIVE UNKNOWN

§ Identity

Operator
Country
US
Launch date
2021-09-14
Launch site
AFWTR
Launch vehicle
Mass (kg)
RCS (m²)

Purposes: comms

External: N2YO · Heavens-Above · Gunter

§ Orbital elements

Epoch: 2026-05-25T02:53:51.040032Z

Period
96.11 min
Inclination
69.9986°
Eccentricity
0.0004023
Mean motion
14.98357419 rev/d
Perigee alt
569.2 km
Apogee alt
574.8 km
Semi-major
6,950.1 km
B*
2.5493e-4
RAAN
101.7247°
Arg perigee
255.3881°
Mean anomaly
104.6832°
Rev number
25,850

§ Raw data

STARLINK-30801 49161U 21082AH  26145.12072963  .00002952  00000+0  25493-3 0  99952 49161  69.9986 101.7247 0004023 255.3881 104.6832 14.98357419258508

JSON: /api/v1/satellites/49161 · /tle

For live sub-satellite position, see the globe view (requires WebGL).

§ Visibility from observer

Set your observer location to see the next 7 days of passes ≥ 10°. The values pass through the URL so the page stays shareable.

No JS? Fill the form by hand. The geolocation button needs JavaScript.